Theta_e
364 364 363 362 361 359 359 362 363 363 361 359 359 361 362 361 359 359 359 362 364 364 364 364 364 363 362 363 362 360 358 357 356 355 352 350 350 348 346 347 348 348
364 365 363 361 360 360 360 362 362 363 362 360 357 357 359 361 361 360 359 360 362 364 364 364 364 364 363 362 362 361 359 359 358 355 353 351 350 350 347 347 348 348
365 365 363 361 360 360 360 360 361 362 361 360 358 355 357 360 361 362 361 360 361 363 363 364 363 364 363 362 363 362 361 360 359 356 354 352 351 351 349 347 347 347
365 364 364 361 359 360 361 361 361 362 360 359 359 356 354 356 360 363 363 362 362 362 363 363 363 362 363 363 362 362 360 360 360 357 355 353 351 351 351 348 346 347
366 364 364 362 360 360 362 361 361 361 361 360 359 358 356 355 358 361 364 363 363 364 363 363 363 362 363 364 363 362 361 359 361 359 356 354 352 352 351 349 346 347
366 365 364 364 362 362 361 362 361 360 362 361 360 360 359 358 358 361 363 363 363 362 360 360 362 362 362 364 364 363 361 360 360 361 359 355 353 353 352 351 348 346
367 367 366 365 364 363 362 362 362 361 361 361 361 361 360 360 360 361 362 363 363 361 360 358 361 362 361 363 364 363 362 360 360 361 360 357 355 354 353 353 350 347
367 368 367 366 365 364 363 363 363 364 363 362 362 362 361 361 362 362 362 362 363 362 361 359 360 363 362 362 364 365 362 361 361 361 361 359 357 356 355 354 353 350
368 368 368 368 366 365 364 363 363 365 365 365 363 363 363 363 362 363 363 363 363 362 364 362 361 362 363 362 364 365 363 361 361 361 361 359 358 357 356 355 354 352
368 368 367 368 366 364 365 363 361 364 366 366 365 363 363 364 363 363 364 365 364 363 364 364 363 363 364 363 364 366 365 362 361 362 363 361 359 358 357 357 355 354
367 367 367 367 365 364 362 361 360 361 364 366 366 363 361 363 365 364 365 367 366 364 364 366 365 365 366 365 364 365 367 364 362 362 363 362 360 358 358 358 357 355
368 367 366 366 364 363 361 361 359 360 361 364 366 364 361 361 365 366 366 367 367 366 365 366 367 367 367 366 364 364 366 365 364 362 363 363 362 360 359 359 359 357
369 368 366 365 364 362 360 360 359 358 358 361 364 366 363 360 362 366 367 367 368 368 366 367 368 367 367 367 366 364 366 366 365 363 362 364 363 361 361 360 360 359
370 370 367 365 364 364 361 360 359 358 358 360 362 365 365 361 360 363 367 367 368 369 368 367 368 368 368 369 368 366 365 366 365 362 362 363 363 363 362 361 361 361
370 370 369 366 364 366 365 362 360 360 359 359 362 363 365 363 360 359 365 367 368 369 368 368 368 368 368 369 369 368 366 366 366 364 361 362 363 363 361 360 360 360
372 372 371 370 366 367 369 365 361 361 361 360 362 362 364 364 363 360 361 365 368 369 369 368 368 369 367 366 367 367 368 366 366 365 363 361 363 363 362 360 358 358
373 373 372 371 370 368 370 368 364 363 362 362 362 363 364 364 365 363 361 362 365 369 369 369 369 368 366 365 364 365 366 366 366 366 365 363 362 362 361 359 358 357
373 374 373 372 371 370 370 370 368 366 364 364 364 365 365 365 365 366 364 362 363 367 369 370 369 367 365 364 363 362 362 364 366 366 366 364 363 362 362 360 358 357
373 374 374 373 373 372 370 371 370 368 367 366 367 367 367 367 367 367 367 365 363 365 368 369 369 368 365 363 363 361 360 361 364 365 365 365 364 362 362 361 360 357
373 375 374 374 374 372 371 372 371 370 368 367 367 368 368 369 368 368 368 368 366 365 366 368 369 369 367 364 362 362 360 358 361 364 364 365 365 364 362 362 361 360
374 374 374 374 374 373 371 371 371 371 370 367 368 368 368 369 369 369 369 368 368 366 365 366 368 368 368 366 363 362 360 360 359 362 364 365 365 365 364 363 362 362
373 373 374 374 374 372 373 371 372 372 371 369 367 367 368 369 369 369 368 368 369 367 366 366 367 366 367 367 365 362 361 360 359 360 362 363 365 365 365 364 363 363
373 373 374 373 373 373 372 372 371 372 371 370 368 367 367 368 370 369 369 369 368 368 368 366 366 366 365 366 366 364 362 360 360 360 361 362 363 364 365 366 365 363
372 372 373 373 373 373 372 372 371 371 371 370 369 367 366 366 368 369 368 369 368 368 368 368 367 367 366 366 365 365 363 361 360 360 362 362 362 362 363 365 365 363
371 371 373 373 372 372 371 371 370 370 371 370 369 368 366 365 366 367 368 369 369 368 368 367 368 368 367 366 366 364 363 362 360 361 362 362 362 362 362 364 364 363
370 371 372 371 371 371 369 370 370 370 369 370 369 368 367 366 365 365 367 369 368 369 369 367 367 368 367 367 366 364 363 361 360 362 363 362 363 363 362 363 364 363
Wind_Speed
27 26 25 24 23 22 22 22 22 21 21 20 20 19 20 20 20 20 20 20 20 20 19 18 17 17 16 15 14 14 14 14 13 13 13 13 12 13 13 14 13 12
28 26 25 24 24 23 24 23 22 22 21 21 21 20 19 19 20 20 20 20 20 20 20 20 19 18 17 16 16 16 15 15 14 14 14 14 14 14 14 15 14 13
29 27 27 26 25 25 25 24 23 22 22 21 22 21 20 19 20 21 21 21 21 20 20 20 20 20 19 17 17 17 17 16 16 15 15 15 15 15 15 15 15 15
31 30 28 27 27 26 25 24 24 23 23 22 23 23 22 20 20 21 22 22 21 21 21 21 21 21 20 19 18 18 17 18 17 16 16 16 16 16 15 15 16 15
32 31 29 28 28 26 25 25 26 25 24 24 23 23 23 22 21 21 22 22 22 22 21 21 21 21 21 21 20 19 18 18 18 18 17 17 16 16 16 16 16 16
32 31 30 29 28 28 27 27 27 26 25 25 24 23 23 23 23 22 22 23 23 23 22 22 22 22 22 21 21 20 19 19 19 19 19 19 18 17 17 16 17 17
32 32 31 30 29 29 29 27 27 27 26 24 24 23 23 23 24 24 23 23 23 23 23 23 22 22 22 22 22 21 20 19 19 20 21 20 19 18 18 17 17 18
33 32 32 31 30 30 30 28 27 27 26 25 24 24 24 24 24 24 24 24 24 23 23 23 23 23 23 23 23 22 22 21 20 22 22 21 20 20 20 18 18 18
33 33 32 32 31 30 30 30 28 27 26 26 26 24 24 25 25 25 25 25 25 24 23 23 23 24 23 24 24 24 24 23 22 23 23 23 22 22 21 20 19 19
34 33 32 33 32 31 31 31 30 28 27 27 27 26 25 25 25 25 25 25 26 25 24 24 24 24 25 25 25 25 25 25 24 24 24 25 24 23 22 22 22 21
34 34 34 34 33 32 32 33 31 29 28 28 28 28 26 25 25 26 26 26 26 26 25 25 25 25 26 26 26 26 26 25 25 25 25 25 25 24 24 23 23 23
35 35 34 35 35 34 33 33 32 31 30 28 28 28 28 27 26 26 27 27 26 26 26 27 26 26 27 27 26 26 26 25 25 25 25 25 26 25 25 25 25 25
36 36 36 36 36 35 34 33 32 32 31 29 28 28 29 29 28 27 27 28 28 27 27 27 28 28 28 28 28 27 27 26 25 25 25 25 26 26 26 26 26 26
35 35 36 36 36 35 35 33 33 33 32 31 29 28 29 30 30 29 28 28 28 29 28 28 29 29 29 29 29 28 27 27 26 25 25 25 26 26 27 27 27 27
34 33 34 35 34 33 34 34 33 32 32 31 30 29 29 29 30 30 29 28 29 29 29 29 29 30 30 30 29 29 28 27 26 26 26 26 26 27 28 28 28 28
32 32 32 33 33 33 33 34 33 32 32 32 32 31 29 29 29 30 30 29 29 29 29 30 30 30 32 33 32 31 29 28 27 27 28 28 27 27 28 28 29 29
31 31 31 31 33 33 32 32 32 32 31 32 32 32 30 29 29 29 30 30 29 30 30 30 30 31 34 36 37 35 32 29 28 28 28 29 29 28 28 29 29 29
29 29 29 30 31 31 31 30 30 30 30 30 31 31 31 30 29 29 30 30 29 30 31 31 31 33 36 38 40 41 38 32 28 28 28 29 29 29 29 28 29 30
27 27 27 28 29 29 29 28 29 30 30 30 29 29 29 29 29 29 29 30 30 30 31 31 31 33 37 40 41 43 43 39 32 28 28 29 29 30 30 29 29 29
27 27 27 26 26 27 27 27 28 29 30 29 28 29 29 29 29 29 29 30 30 30 30 30 30 31 35 40 42 42 44 44 38 31 28 29 29 30 30 30 30 30
28 27 27 26 25 26 27 28 28 28 29 29 27 28 28 28 28 29 29 29 29 30 30 30 30 31 34 37 41 42 43 45 43 35 30 30 30 30 31 31 32 32
28 27 26 26 26 27 28 28 28 28 28 28 27 26 26 27 27 28 28 28 28 29 30 30 30 32 34 36 39 41 42 45 46 40 33 31 30 30 31 32 32 33
27 27 26 27 27 28 29 29 28 27 26 26 26 26 25 25 25 26 26 27 29 29 30 31 31 32 35 37 39 41 42 45 48 43 35 33 32 30 31 32 33 34
27 27 27 28 28 28 28 27 26 25 25 25 26 26 26 25 24 24 25 27 28 30 31 31 31 33 37 38 40 42 43 46 48 42 36 34 34 32 32 32 33 35
26 27 27 27 28 27 26 25 25 24 24 25 25 25 26 26 25 25 25 26 27 29 31 32 31 32 36 39 41 42 43 47 46 39 34 34 34 33 33 32 32 34
24 25 26 25 25 25 24 24 24 24 24 24 25 25 24 25 25 25 25 25 25 26 28 31 32 33 35 37 40 42 45 48 45 37 33 34 33 32 31 30 32 34
Wind_Direction
201 201 202 202 203 205 206 206 208 208 207 207 209 210 209 209 209 207 206 204 202 201 200 199 199 199 199 197 195 197 199 198 199 202 207 214 217 216 218 217 216 221
200 200 201 202 203 206 207 208 209 210 210 211 213 213 212 210 209 207 207 205 203 202 200 198 198 198 197 198 196 197 201 201 202 205 206 211 217 217 218 219 216 218
199 200 201 203 205 206 208 209 210 212 213 213 214 215 214 212 209 207 206 205 204 204 203 201 199 199 199 198 197 199 202 202 203 206 207 208 215 219 218 219 219 216
199 201 202 204 207 208 208 209 210 212 214 214 215 215 215 214 211 208 206 205 204 204 204 203 202 203 202 200 199 201 203 204 205 206 206 207 212 218 219 217 219 218
199 200 202 204 207 208 207 209 211 212 213 215 215 214 214 213 211 209 207 205 204 204 205 205 204 204 203 200 200 203 205 207 207 205 205 208 209 214 219 217 217 219
197 199 201 203 204 206 207 209 212 212 214 215 215 214 213 212 211 210 209 208 208 207 207 207 206 205 204 202 201 202 205 208 208 205 205 209 209 211 215 216 215 216
196 198 200 202 203 204 207 210 211 212 213 214 214 214 213 211 210 210 210 210 211 210 209 208 206 205 205 202 202 202 203 208 208 204 205 208 210 211 212 214 214 214
195 197 198 200 202 203 206 208 210 211 211 212 213 213 212 211 210 210 210 209 212 212 210 209 206 205 205 203 203 202 201 206 208 204 205 206 208 211 212 212 213 213
195 196 197 198 200 202 205 208 210 210 209 209 212 212 211 211 210 210 210 208 210 210 209 208 206 205 206 206 205 204 202 204 206 206 205 205 206 210 212 212 212 213
194 195 197 198 200 203 206 209 210 210 209 208 210 212 211 210 210 210 210 207 208 208 206 207 207 205 207 209 208 207 205 205 206 206 206 206 207 209 211 211 211 211
194 196 198 200 203 205 208 210 211 211 211 209 209 212 213 210 209 209 209 207 206 207 205 205 206 206 206 209 211 211 209 208 207 206 207 208 209 210 211 211 211 210
194 196 199 202 204 207 209 210 212 212 212 210 209 211 212 211 209 208 207 207 206 206 205 205 206 206 207 208 211 212 212 212 210 208 208 209 210 212 212 211 211 211
194 195 198 202 204 207 208 210 211 212 212 212 210 210 212 212 212 209 207 206 205 205 205 205 205 207 208 208 209 211 212 212 213 212 210 210 211 212 214 214 213 212
194 195 198 202 204 205 207 209 210 211 212 211 210 210 211 212 213 211 208 206 205 205 205 205 206 207 208 207 208 210 211 212 213 213 213 213 213 213 215 217 216 215
192 194 197 201 202 202 204 206 208 210 210 211 211 211 212 213 214 213 210 207 206 206 206 206 207 208 209 208 207 207 209 211 213 214 215 215 214 215 216 218 219 219
189 192 194 197 199 200 201 203 206 207 208 210 211 212 212 212 213 214 213 210 207 205 206 208 209 210 212 212 211 208 207 209 212 213 216 217 216 216 217 219 221 222
189 191 192 193 197 198 199 200 202 205 207 209 211 212 213 213 213 214 215 214 210 207 208 209 210 213 215 215 215 213 210 209 211 212 214 217 218 218 218 219 220 222
190 191 191 192 195 196 197 197 199 203 205 207 209 210 211 213 213 213 214 215 214 211 211 212 213 216 217 217 217 217 215 212 212 214 215 216 219 220 220 220 220 221
190 191 192 193 194 194 195 196 197 201 203 205 207 208 209 211 212 212 213 214 215 215 214 215 216 217 218 218 218 219 218 216 213 215 217 217 218 220 221 221 220 220
190 192 193 194 193 192 194 196 198 201 203 204 206 207 208 209 211 213 213 214 216 218 218 219 220 219 219 220 220 220 220 218 216 216 219 220 219 219 220 221 220 218
190 192 193 192 191 192 194 198 201 202 203 204 206 207 209 209 211 214 215 215 217 219 222 223 223 222 221 221 222 222 221 220 218 218 221 223 222 220 220 221 220 219
191 191 191 191 191 193 196 200 203 203 202 204 207 210 211 211 213 216 217 218 219 220 223 225 225 225 224 222 222 222 221 220 219 219 222 224 224 222 221 221 220 219
192 191 191 192 192 195 199 201 203 203 203 204 208 211 214 214 216 218 219 220 221 221 223 226 227 227 226 224 223 221 219 218 218 218 221 225 226 225 223 222 221 219
194 193 193 194 195 197 200 202 202 204 204 204 207 212 216 217 217 219 221 221 223 223 223 225 228 229 227 226 224 221 218 218 217 216 219 223 226 227 226 225 224 220
196 196 195 196 198 199 201 201 201 203 203 204 208 212 216 218 219 221 222 223 224 225 226 227 228 231 230 228 225 222 219 217 216 214 218 222 224 226 227 227 227 224
196 197 197 198 199 199 201 201 201 202 203 204 207 212 215 217 219 222 224 226 227 228 228 229 230 232 233 231 227 224 221 218 214 212 216 220 222 225 227 227 228 228